Hourly Data Report for October 04, 2019

TORONTO CITY
ONTARIO
Current Station Operator: ECCC - MSC

43°40'00.000" N
79°24'00.000" W
112.50 m
6158355
71508
XTO

Download Data

Hourly Data (October 2019)
Hourly Data Report for October 4, 2019
TIME
LST
Temp Definition
°C
Dew Point Definition
°C
Rel Hum Definition
%
Precip. Amount Definition
mm

Wind Dir Definition
10's deg

Wind Spd Definition
km/h
Visibility Definition
km
Stn Press Definition
kPa
Hmdx Definition


Wind Chill Definition


Weather Definition


00:00 11.0 9.6 91 0.0       100.25     LegendNANA
01:00 11.0 9.5 90 0.0       100.34     LegendNANA
02:00 10.5 8.2 86 0.0       100.44     LegendNANA
03:00 9.7 7.2 85 0.0       100.53     LegendNANA
04:00 8.9 5.8 81 0.0       100.67     LegendNANA
05:00 8.9 5.5 79 0.0       100.79     LegendNANA
06:00 8.5 4.7 77 0.0       100.94     LegendNANA
07:00 8.1 4.2 76 0.0       101.06     LegendNANA
08:00 8.7 3.3 69 0.0       101.19     LegendNANA
09:00 9.2 1.7 60 0.0       101.28     LegendNANA
10:00 9.4 0.7 55 0.0       101.35     LegendNANA
11:00 10.1 1.6 55 0.0       101.42     LegendNANA
12:00 10.7 2.1 55 0.0       101.46     LegendNANA
13:00 10.8 0.8 50 0.0       101.47     LegendNANA
14:00 10.9 1.0 51 0.0       101.45     LegendNANA
15:00 10.8 2.1 55 0.0       101.46     LegendNANA
16:00 11.1 2.3 55 0.0       101.46     LegendNANA
17:00 11.2 1.9 53 0.0       101.45     LegendNANA
18:00 10.4 2.6 58 0.0       101.49     LegendNANA
19:00 10.0 2.5 59 0.0       101.55     LegendNANA
20:00 8.8 2.6 65 0.0       101.60     LegendNANA
21:00 8.0 2.7 69 0.0       101.63     LegendNANA
22:00 7.1 2.8 74 0.0       101.66     LegendNANA
23:00 7.2 2.8 73 0.0       101.66     LegendNANA

Notes on Data Quality.

Legend

  • E = Estimated
  • M = Missing
  • NA = Not Available*
  • [empty] = Indicates an unobserved value
Date modified: